MIET-AIS (RS28S) (53377 NORAD) Tracking and Keplerian Element Data

This shows tracking and keplerian element data for the satellite.

Feedback or suggestion? Click here.




ElementValue
Catalog53377
NameMIET-AIS (RS28S)
Epoch Orbit10307
Epoch Day160.17657485
Epoch Year2024
RAAN82.3415
Inclination97.3758
Eccentricity0.0009851
Argument of Perigee188.3654
Mean Anonmoly171.7474
Mean Motion16.2301277
Decay Rate0.03257664
L11 53377U 22096H 24160.17657485 .03257664 24452-5 13573-2 0 9996
L22 53377 97.3758 82.3415 0009851 188.3654 171.7474 16.23012770103078



Live tracking and technical data element details for MIET-AIS (RS28S) (NORAD 53377). MIET-AIS (RS28S) can be tracked NOW for your location showing map with azimuth and elevation plus other details from your city location.







IsCatalogInMostPopularTable: catalog: 53377, numindb: 40
Update: records affected: 1



GetName: 53377 MIET-AIS (RS28S)

Hit Count: updated at: Thu, 23 Jan 2025 17:22:40 GMT